This is the latest recevied weather packets stored in our database for station/object F4ACR-10. If no packets are shown the sender has not sent any weather packets the latest 10 day(s).
| Time | Temp. | Humidity | Pressure | Rain* | Wind** | Luminosity | Snow |
|---|---|---|---|---|---|---|---|
| 1787465658 | 19.44° C | 43% | 1020.1 hPa | - | - | - | - |
| 1787465057 | 18.33° C | 46% | 1020.1 hPa | - | - | - | - |
| 1787464457 | 17.22° C | 47% | 1020.2 hPa | - | - | - | - |
| 1787463857 | 17.22° C | 47% | 1020.2 hPa | - | - | - | - |
| 1787463257 | 17.22° C | 47% | 1020.1 hPa | - | - | - | - |
| 1787462657 | 17.22° C | 47% | 1020.1 hPa | - | - | - | - |
| 1787462056 | 17.78° C | 46% | 1019.8 hPa | - | - | - | - |
| 1787461456 | 17.22° C | 46% | 1019.9 hPa | - | - | - | - |
| 1787460856 | 17.22° C | 46% | 1019.9 hPa | - | - | - | - |
| 1787460256 | 17.78° C | 46% | 1019.9 hPa | - | - | - | - |
| 1787459656 | 17.78° C | 46% | 1019.7 hPa | - | - | - | - |
| 1787459055 | 17.78° C | 46% | 1019.9 hPa | - | - | - | - |
| 1787458455 | 17.78° C | 46% | 1019.9 hPa | - | - | - | - |
| 1787457855 | 17.78° C | 46% | 1019.9 hPa | - | - | - | - |
| 1787457255 | 17.78° C | 45% | 1020 hPa | - | - | - | - |
| 1787456655 | 17.78° C | 45% | 1019.9 hPa | - | - | - | - |
| 1787456055 | 17.78° C | 44% | 1019.8 hPa | - | - | - | - |
| 1787455454 | 17.78° C | 44% | 1020 hPa | - | - | - | - |
| 1787454854 | 18.33° C | 43% | 1020 hPa | - | - | - | - |
| 1787454254 | 18.33° C | 43% | 1020.1 hPa | - | - | - | - |
| 1787453654 | 18.33° C | 42% | 1020.3 hPa | - | - | - | - |
| 1787453053 | 18.33° C | 41% | 1020.2 hPa | - | - | - | - |
| 1787452453 | 18.89° C | 41% | 1020.1 hPa | - | - | - | - |
| 1787451853 | 18.89° C | 41% | 1020.2 hPa | - | - | - | - |
| 1787451253 | 18.89° C | 40% | 1020.2 hPa | - | - | - | - |
* Rain since midnight (hover to see other rain measurements)
** Current wind speed in m/s (hover to see current wind gust speed)